• In Belarus
  • List of Countries
  • For 7 days
  • Water Temperature
  • Weather Map
  • Weather Widgets
  • user-avatar
    Login

    Hourly Weather Melbourne

    Today, 23 August, Friday

    Time Temperature Precipitation Wind Pressure Humidity
    00:00 +8°C° 0 mm 1 mps 768 mmHg 79%
    01:00 +6°C° 0 mm 2 mps 768 mmHg 81%
    02:00 +7°C° 0 mm 1 mps 768 mmHg 82%
    03:00 +6°C° 0 mm 1 mps 767 mmHg 82%
    04:00 +6°C° 0 mm 1 mps 767 mmHg 84%
    05:00 +6°C° 0 mm 1 mps 767 mmHg 84%
    06:00 +6°C° 0 mm 1 mps 767 mmHg 84%
    07:00 +4°C° 0 mm 2 mps 767 mmHg 84%
    08:00 +6°C° 0 mm 2 mps 767 mmHg 75%
    09:00 +8°C° 0 mm 2 mps 767 mmHg 65%
    10:00 +12°C° 0 mm 2 mps 767 mmHg 56%
    11:00 +12°C° 0 mm 3 mps 766 mmHg 52%
    12:00 +14°C° 0 mm 3 mps 766 mmHg 47%
    13:00 +15°C° 0 mm 4 mps 765 mmHg 42%
    14:00 +15°C° 0 mm 4 mps 764 mmHg 45%
    15:00 +15°C° 0 mm 5 mps 764 mmHg 48%
    16:00 +14°C° 0 mm 6 mps 763 mmHg 51%
    17:00 +13°C° 0 mm 6 mps 764 mmHg 56%
    18:00 +12°C° 0 mm 5 mps 764 mmHg 61%
    19:00 +9°C° 0 mm 5 mps 764 mmHg 66%
    20:00 +9°C° 0 mm 5 mps 764 mmHg 66%
    21:00 +9°C° 0 mm 5 mps 764 mmHg 67%
    22:00 +8°C° 0 mm 5 mps 763 mmHg 67%
    23:00 +8°C° 0 mm 5 mps 763 mmHg 67%

    Tomorrow, 24 August, Saturday

    Time Temperature Precipitation Wind Pressure Humidity
    00:00 +8°C° 0 mm 5 mps 763 mmHg 68%
    01:00 +8°C° 0 mm 6 mps 762 mmHg 68%
    02:00 +8°C° 0 mm 6 mps 762 mmHg 68%
    03:00 +7°C° 0 mm 6 mps 761 mmHg 68%
    04:00 +6°C° 0 mm 7 mps 761 mmHg 68%
    05:00 +6°C° 0 mm 7 mps 761 mmHg 67%
    06:00 +6°C° 0 mm 7 mps 761 mmHg 67%
    07:00 +6°C° 0 mm 8 mps 760 mmHg 67%
    08:00 +7°C° 0 mm 8 mps 760 mmHg 63%
    09:00 +10°C° 0 mm 8 mps 760 mmHg 59%
    10:00 +11°C° 0 mm 8 mps 759 mmHg 56%
    11:00 +12°C° 0 mm 8 mps 759 mmHg 53%
    12:00 +15°C° 0 mm 8 mps 758 mmHg 51%
    13:00 +16°C° 0 mm 8 mps 757 mmHg 49%
    14:00 +16°C° 0 mm 8 mps 757 mmHg 51%
    15:00 +16°C° 0 mm 7 mps 756 mmHg 54%
    16:00 +17°C° 0 mm 6 mps 756 mmHg 56%
    17:00 +15°C° 0.2 mm 7 mps 757 mmHg 64%
    18:00 +14°C° 0.2 mm 7 mps 757 mmHg 72%
    19:00 +11°C° 0.2 mm 7 mps 758 mmHg 79%
    20:00 +10°C° 0.6 mm 6 mps 759 mmHg 79%
    21:00 +9°C° 0.6 mm 5 mps 759 mmHg 79%
    22:00 +9°C° 0.6 mm 3 mps 760 mmHg 79%
    23:00 +8°C° 0.1 mm 4 mps 761 mmHg 80%

    Day after tomorrow, 25 August, Sunday

    Time Temperature Precipitation Wind Pressure Humidity
    00:00 +7°C° 0.1 mm 4 mps 761 mmHg 81%
    01:00 +7°C° 0.1 mm 4 mps 762 mmHg 82%
    02:00 +6°C° 0 mm 4 mps 762 mmHg 81%
    03:00 +6°C° 0 mm 4 mps 762 mmHg 80%
    04:00 +5°C° 0 mm 4 mps 762 mmHg 79%
    05:00 +5°C° 0 mm 3 mps 762 mmHg 79%
    06:00 +5°C° 0 mm 3 mps 763 mmHg 78%
    07:00 +6°C° 0 mm 2 mps 763 mmHg 78%
    08:00 +8°C° 0 mm 3 mps 764 mmHg 73%
    09:00 +9°C° 0 mm 3 mps 764 mmHg 68%
    10:00 +10°C° 0 mm 3 mps 764 mmHg 63%
    11:00 +11°C° 0 mm 3 mps 764 mmHg 59%
    12:00 +12°C° 0 mm 3 mps 764 mmHg 55%
    13:00 +12°C° 0 mm 3 mps 764 mmHg 51%
    14:00 +12°C° 0.1 mm 3 mps 764 mmHg 52%
    15:00 +12°C° 0.1 mm 4 mps 764 mmHg 54%
    16:00 +12°C° 0.1 mm 4 mps 764 mmHg 55%
    17:00 +11°C° 0 mm 3 mps 764 mmHg 61%
    18:00 +9°C° 0 mm 3 mps 765 mmHg 67%
    19:00 +8°C° 0 mm 2 mps 765 mmHg 72%
    20:00 +8°C° 0 mm 2 mps 765 mmHg 75%
    21:00 +7°C° 0 mm 2 mps 766 mmHg 78%
    22:00 +7°C° 0 mm 2 mps 766 mmHg 81%
    23:00 +6°C° 0 mm 2 mps 766 mmHg 81%

    26 August, Monday

    Time Temperature Precipitation Wind Pressure Humidity
    00:00 +6°C° 0 mm 2 mps 766 mmHg 82%
    01:00 +6°C° 0 mm 2 mps 766 mmHg 83%
    02:00 +6°C° 0 mm 2 mps 766 mmHg 84%
    03:00 +6°C° 0 mm 2 mps 766 mmHg 85%
    04:00 +5°C° 0 mm 2 mps 766 mmHg 86%
    05:00 +5°C° 0 mm 2 mps 766 mmHg 87%
    06:00 +5°C° 0 mm 2 mps 767 mmHg 87%
    07:00 +6°C° 0 mm 1 mps 767 mmHg 88%
    08:00 +7°C° 0 mm 2 mps 767 mmHg 81%
    09:00 +9°C° 0 mm 2 mps 767 mmHg 75%
    10:00 +10°C° 0 mm 2 mps 767 mmHg 68%
    11:00 +12°C° 0 mm 2 mps 767 mmHg 63%
    12:00 +13°C° 0 mm 2 mps 766 mmHg 57%
    13:00 +15°C° 0 mm 2 mps 766 mmHg 52%
    14:00 +14°C° 0 mm 2 mps 766 mmHg 52%
    15:00 +14°C° 0 mm 2 mps 765 mmHg 52%
    16:00 +14°C° 0 mm 2 mps 765 mmHg 52%
    17:00 +13°C° 0 mm 1 mps 766 mmHg 58%
    18:00 +12°C° 0 mm 1 mps 766 mmHg 64%
    19:00 +10°C° 0 mm 1 mps 767 mmHg 70%
    20:00 +10°C° 0 mm 1 mps 767 mmHg 73%
    21:00 +9°C° 0 mm 1 mps 767 mmHg 76%
    22:00 +9°C° 0 mm 1 mps 767 mmHg 79%
    23:00 +8°C° 0 mm 1 mps 767 mmHg 81%

    27 August, Tuesday

    Time Temperature Precipitation Wind Pressure Humidity
    00:00 +8°C° 0 mm 1 mps 767 mmHg 82%
    01:00 +7°C° 0 mm 1 mps 767 mmHg 84%
    02:00 +7°C° 0 mm 1 mps 767 mmHg 85%
    03:00 +7°C° 0 mm 1 mps 767 mmHg 85%
    04:00 +7°C° 0 mm 1 mps 767 mmHg 86%
    05:00 +7°C° 0 mm 1 mps 767 mmHg 87%
    06:00 +7°C° 0 mm 1 mps 767 mmHg 87%
    07:00 +6°C° 0 mm 1 mps 768 mmHg 88%
    08:00 +8°C° 0 mm 1 mps 768 mmHg 80%
    09:00 +10°C° 0 mm 1 mps 768 mmHg 73%
    10:00 +12°C° 0 mm 1 mps 768 mmHg 65%
    11:00 +14°C° 0 mm 1 mps 767 mmHg 60%
    12:00 +15°C° 0 mm 1 mps 767 mmHg 55%
    13:00 +16°C° 0 mm 1 mps 767 mmHg 50%
    14:00 +16°C° 0 mm 1 mps 766 mmHg 51%
    15:00 +15°C° 0 mm 1 mps 766 mmHg 52%
    16:00 +15°C° 0 mm 1 mps 766 mmHg 54%
    17:00 +14°C° 0 mm 1 mps 766 mmHg 59%
    18:00 +13°C° 0 mm 1 mps 767 mmHg 65%
    19:00 +11°C° 0 mm 1 mps 767 mmHg 70%
    20:00 +11°C° 0 mm 1 mps 768 mmHg 73%
    21:00 +9°C° 0 mm 2 mps 768 mmHg 76%
    22:00 +8°C° 0 mm 2 mps 768 mmHg 79%
    23:00 +8°C° 0 mm 2 mps 768 mmHg 81%

    28 August, Wednesday

    Time Temperature Precipitation Wind Pressure Humidity
    00:00 +8°C° 0 mm 2 mps 768 mmHg 83%
    01:00 +7°C° 0 mm 2 mps 768 mmHg 84%
    02:00 +7°C° 0 mm 2 mps 768 mmHg 85%
    03:00 +7°C° 0 mm 2 mps 768 mmHg 85%
    04:00 +7°C° 0 mm 2 mps 767 mmHg 85%
    05:00 +6°C° 0 mm 2 mps 768 mmHg 85%
    06:00 +6°C° 0 mm 2 mps 768 mmHg 84%
    07:00 +6°C° 0 mm 2 mps 768 mmHg 84%
    08:00 +8°C° 0 mm 2 mps 768 mmHg 75%
    09:00 +10°C° 0 mm 2 mps 768 mmHg 67%
    10:00 +14°C° 0 mm 2 mps 768 mmHg 59%
    11:00 +15°C° 0 mm 2 mps 768 mmHg 55%
    12:00 +16°C° 0 mm 2 mps 767 mmHg 50%
    13:00 +18°C° 0 mm 1 mps 766 mmHg 46%
    14:00 +18°C° 0 mm 1 mps 766 mmHg 49%
    15:00 +18°C° 0 mm 1 mps 766 mmHg 51%
    16:00 +16°C° 0 mm 1 mps 766 mmHg 54%
    17:00 +15°C° 0.1 mm 2 mps 766 mmHg 61%
    18:00 +14°C° 0.1 mm 2 mps 766 mmHg 68%
    19:00 +13°C° 0.1 mm 2 mps 767 mmHg 74%
    20:00 +12°C° 0.1 mm 2 mps 767 mmHg 77%
    21:00 +12°C° 0.1 mm 2 mps 767 mmHg 79%
    22:00 +10°C° 0.1 mm 2 mps 767 mmHg 81%
    23:00 +10°C° 0 mm 2 mps 767 mmHg 82%
    Show more